Weather in Sherbakul

Russia / Omsk Oblast     54˚37′45″N   72˚23′28″E
temp.,
°C
wind,
m/s
gust,
m/s
humid.,
%
clouds,
%
prec.,
mm/h
press.,
hPa
HPBL,
m
28 november, sat
sat2800:00−14˚ese379383 0.0 1034213
03:00−15˚e359458 0.0 103489
06:00−15˚e359558 0.0 1034102
09:00−15˚ene3695100 0.0 1034180
12:00−13˚ene3592100 0.0 1035246
15:00−12˚ne4792100 0.0 1034269
18:00−13˚nne5894100 0.0 1035256
21:00−13˚nne4994100 0.0 1037274
29 november, sun
sun2900:00−13˚nne5993100 0.0 1037262
03:00−14˚n6993100 0.0 1038265
06:00−14˚n5993100 0.0 1040266
09:00−15˚n5994100 0.0 1041243
12:00−14˚nnw579281 0.0 1043253
15:00−13˚nnw479155 0.0 1043288
18:00−16˚nnw479547 0.0 1045170
21:00−17˚nnw35960 0.0 1046103
30 november, mon
mon3000:00−17˚nnw35960 0.0 1047108
03:00−18˚nnw33962 0.0 104859
06:00−18˚nnw33965 0.0 104952
09:00−18˚nnw23960 0.0 105041
12:00−16˚nnw12920 0.0 1051120
15:00−15˚nnw129321 0.0 1051130
18:00−17˚nnw229511 0.0 105220
21:00−18˚nw12950 0.0 105220
1 december, tue
tue100:00−18˚nw11940 0.0 105220
03:00−18˚w22940 0.0 105220
06:00−18˚w22931 0.0 105320
09:00−18˚wnw22930 0.0 105320
12:00−15˚w22900 0.0 105396
15:00−15˚w23910 0.0 1052128
18:00−16˚w23910 0.0 105328
21:00−17˚wnw22900 0.0 105220
2 december, wed
wed200:00−17˚w22890 0.0 105220
03:00−17˚w22890 0.0 105220
06:00−17˚wnw12880 0.0 105120
09:00−17˚wnw11860 0.0 105120
12:00−14˚wsw11830 0.0 105062
15:00−14˚w11850 0.0 104920
18:00−16˚ssw11840 0.0 104820
21:00−16˚ssw11840 0.0 104720